Total_Precipitation_Accumulation
0.00 0.00 0.00 0.00 0.00 0.00 0.00 0.00 0.00 0.00 0.00 0.00 0.00 0.00 0.00 0.00 0.00 0.00 0.00 0.01 0.00 0.01 0.01 0.01 0.00 0.03 0.05 0.08 0.14 0.19 0.13 0.19 0.29 0.33 0.15 0.17 0.09 0.06 0.05 0.09 0.09 0.03 0.12
0.00 0.00 0.00 0.00 0.00 0.00 0.00 0.00 0.00 0.00 0.00 0.00 0.00 0.00 0.00 0.00 0.00 0.00 0.00 0.00 0.01 0.01 0.02 0.01 0.01 0.02 0.04 0.04 0.06 0.07 0.05 0.04 0.05 0.22 0.23 0.33 0.16 0.07 0.07 0.09 0.04 0.06 0.08
0.00 0.00 0.00 0.00 0.00 0.00 0.00 0.00 0.00 0.00 0.00 0.00 0.00 0.00 0.00 0.00 0.00 0.00 0.00 0.01 0.02 0.02 0.01 0.01 0.01 0.01 0.01 0.03 0.08 0.10 0.01 0.01 0.03 0.12 0.27 0.44 0.21 0.17 0.06 0.05 0.04 0.07 0.06
0.00 0.00 0.00 0.00 0.00 0.00 0.00 0.00 0.00 0.00 0.00 0.00 0.00 0.00 0.00 0.00 0.00 0.00 0.00 0.02 0.04 0.03 0.02 0.01 0.03 0.04 0.05 0.05 0.07 0.07 0.01 0.00 0.00 0.03 0.08 0.17 0.11 0.25 0.09 0.04 0.06 0.08 0.09
0.00 0.00 0.00 0.00 0.00 0.00 0.00 0.00 0.00 0.00 0.00 0.00 0.00 0.00 0.00 0.00 0.00 0.02 0.03 0.04 0.07 0.12 0.09 0.04 0.09 0.10 0.03 0.03 0.08 0.10 0.01 0.02 0.04 0.03 0.05 0.14 0.11 0.22 0.17 0.15 0.15 0.19 0.27
0.00 0.00 0.00 0.00 0.00 0.00 0.00 0.00 0.00 0.00 0.00 0.00 0.00 0.00 0.00 0.01 0.02 0.09 0.06 0.07 0.13 0.26 0.31 0.34 0.36 0.30 0.02 0.00 0.00 0.02 0.01 0.04 0.16 0.16 0.19 0.14 0.36 0.21 0.17 0.11 0.12 0.14 0.21
0.00 0.00 0.00 0.00 0.00 0.00 0.00 0.00 0.00 0.00 0.00 0.00 0.00 0.00 0.00 0.03 0.13 0.14 0.13 0.10 0.27 0.37 0.31 0.34 0.21 0.14 0.00 0.00 0.01 0.05 0.04 0.06 0.18 0.21 0.28 0.21 0.44 0.16 0.06 0.03 0.06 0.10 0.12
0.00 0.00 0.00 0.00 0.00 0.00 0.00 0.00 0.00 0.00 0.00 0.00 0.00 0.02 0.01 0.08 0.23 0.12 0.05 0.08 0.13 0.16 0.26 0.19 0.06 0.04 0.04 0.02 0.03 0.10 0.06 0.04 0.13 0.49 0.83 0.35 0.48 0.28 0.07 0.03 0.09 0.09 0.03
0.00 0.00 0.00 0.00 0.00 0.00 0.00 0.00 0.00 0.00 0.00 0.00 0.00 0.12 0.25 0.50 0.38 0.22 0.10 0.27 0.28 0.27 0.49 0.37 0.26 0.51 0.21 0.23 0.20 0.17 0.10 0.08 0.14 0.27 0.69 0.19 0.26 0.17 0.10 0.04 0.05 0.04 0.01
0.00 0.00 0.00 0.00 0.00 0.00 0.00 0.00 0.00 0.00 0.00 0.00 0.00 0.05 0.15 0.28 0.21 0.26 0.29 0.22 0.21 0.24 0.28 0.29 0.51 0.46 0.57 0.38 0.18 0.16 0.13 0.10 0.08 0.46 0.46 0.20 0.26 0.18 0.16 0.05 0.01 0.00 0.00
0.00 0.00 0.00 0.00 0.00 0.00 0.00 0.01 0.01 0.01 0.01 0.00 0.00 0.01 0.15 0.23 0.16 0.14 0.22 0.19 0.14 0.21 0.27 0.34 0.35 0.53 0.56 0.63 0.64 0.61 0.39 0.03 0.15 0.22 0.32 0.19 0.35 0.17 0.14 0.06 0.02 0.00 0.00
0.00 0.00 0.00 0.00 0.00 0.00 0.00 0.01 0.02 0.02 0.02 0.02 0.01 0.01 0.04 0.05 0.08 0.05 0.04 0.02 0.08 0.15 0.31 0.39 0.37 0.44 0.47 0.44 0.58 0.51 0.24 0.16 0.28 0.51 0.25 0.14 0.25 0.14 0.21 0.10 0.03 0.01 0.01
0.00 0.00 0.00 0.00 0.00 0.00 0.00 0.00 0.01 0.02 0.03 0.02 0.03 0.03 0.04 0.09 0.11 0.12 0.15 0.10 0.15 0.13 0.18 0.31 0.20 0.19 0.15 0.22 0.32 0.35 0.39 0.28 0.44 0.46 0.36 0.13 0.23 0.20 0.25 0.09 0.03 0.02 0.01
0.00 0.00 0.00 0.00 0.00 0.00 0.00 0.00 0.00 0.01 0.03 0.02 0.02 0.03 0.06 0.09 0.08 0.08 0.08 0.09 0.07 0.09 0.17 0.22 0.13 0.09 0.06 0.14 0.20 0.20 0.37 0.63 0.66 0.91 0.35 0.21 0.34 0.56 0.22 0.10 0.04 0.03 0.03
0.00 0.00 0.00 0.00 0.00 0.00 0.00 0.00 0.00 0.01 0.01 0.01 0.01 0.03 0.05 0.04 0.05 0.06 0.06 0.06 0.04 0.07 0.21 0.26 0.16 0.12 0.07 0.07 0.11 0.12 0.13 0.20 0.61 0.65 0.48 0.24 0.31 0.45 0.38 0.17 0.12 0.07 0.04
0.00 0.00 0.00 0.00 0.00 0.00 0.00 0.00 0.00 0.00 0.00 0.01 0.01 0.01 0.03 0.05 0.10 0.12 0.10 0.06 0.16 0.33 0.24 0.26 0.23 0.15 0.12 0.09 0.16 0.15 0.15 0.08 0.09 0.18 0.30 0.17 0.37 0.51 0.68 0.48 0.27 0.16 0.09
0.00 0.00 0.00 0.00 0.00 0.00 0.00 0.00 0.00 0.00 0.00 0.00 0.00 0.01 0.01 0.02 0.04 0.08 0.12 0.13 0.15 0.66 0.57 0.39 0.42 0.43 0.31 0.16 0.16 0.15 0.17 0.17 0.09 0.06 0.09 0.07 0.16 0.34 0.53 0.68 0.55 0.29 0.18
0.00 0.00 0.00 0.00 0.00 0.00 0.00 0.00 0.00 0.00 0.00 0.00 0.00 0.00 0.00 0.01 0.01 0.03 0.07 0.12 0.18 0.33 0.42 0.42 0.51 0.49 0.48 0.23 0.19 0.15 0.16 0.17 0.20 0.14 0.04 0.03 0.03 0.07 0.20 0.52 0.63 0.68 0.48
0.00 0.00 0.00 0.00 0.00 0.00 0.00 0.00 0.00 0.00 0.00 0.00 0.00 0.00 0.01 0.01 0.01 0.01 0.04 0.13 0.19 0.24 0.30 0.38 0.39 0.55 0.49 0.39 0.27 0.19 0.18 0.16 0.11 0.13 0.07 0.04 0.03 0.03 0.05 0.23 0.40 0.48 0.79
0.00 0.00 0.00 0.00 0.00 0.00 0.00 0.00 0.00 0.00 0.01 0.01 0.01 0.01 0.01 0.01 0.01 0.02 0.04 0.10 0.30 0.43 0.37 0.36 0.49 0.58 0.55 0.50 0.37 0.33 0.32 0.27 0.16 0.06 0.05 0.04 0.04 0.05 0.05 0.07 0.15 0.17 0.21
0.00 0.00 0.00 0.00 0.00 0.00 0.00 0.00 0.00 0.01 0.01 0.03 0.01 0.01 0.01 0.02 0.02 0.05 0.08 0.09 0.21 0.36 0.41 0.28 0.41 0.61 0.65 0.53 0.49 0.52 0.40 0.30 0.22 0.10 0.04 0.04 0.04 0.04 0.05 0.04 0.07 0.08 0.10
0.00 0.00 0.00 0.00 0.00 0.00 0.00 0.01 0.04 0.08 0.04 0.02 0.03 0.02 0.02 0.02 0.03 0.08 0.11 0.15 0.20 0.33 0.46 0.35 0.32 0.47 0.52 0.48 0.41 0.42 0.48 0.46 0.36 0.20 0.07 0.04 0.04 0.05 0.05 0.04 0.05 0.05 0.03
0.00 0.00 0.00 0.00 0.00 0.00 0.01 0.04 0.07 0.26 0.20 0.06 0.05 0.02 0.09 0.08 0.08 0.08 0.11 0.15 0.15 0.16 0.27 0.39 0.39 0.29 0.26 0.34 0.30 0.25 0.29 0.22 0.17 0.24 0.20 0.05 0.03 0.03 0.07 0.10 0.09 0.08 0.05
0.00 0.00 0.00 0.01 0.03 0.05 0.08 0.10 0.13 0.13 0.07 0.03 0.03 0.08 0.15 0.10 0.11 0.05 0.12 0.20 0.31 0.23 0.23 0.32 0.44 0.38 0.29 0.31 0.28 0.17 0.08 0.08 0.11 0.18 0.21 0.24 0.11 0.07 0.06 0.09 0.12 0.16 0.08
0.00 0.00 0.00 0.00 0.01 0.03 0.07 0.09 0.19 0.22 0.23 0.19 0.25 0.31 0.31 0.24 0.14 0.13 0.08 0.17 0.30 0.21 0.16 0.21 0.35 0.44 0.36 0.31 0.26 0.24 0.16 0.11 0.13 0.19 0.23 0.24 0.35 0.22 0.14 0.11 0.13 0.16 0.06
0.00 0.00 0.00 0.00 0.00 0.01 0.04 0.06 0.09 0.10 0.12 0.13 0.19 0.27 0.31 0.27 0.18 0.15 0.24 0.19 0.15 0.11 0.09 0.10 0.16 0.21 0.28 0.31 0.28 0.29 0.20 0.14 0.10 0.12 0.17 0.22 0.24 0.21 0.20 0.23 0.17 0.17 0.12